STARLINK-11283, 60993

Orbit data source: Space-Track

STARLINK-11283, 60993 is a payload satellite owned by SpaceX/Seattle (US) in LEO that was launched on Thu, 05 Sep 2024 UTC via an FALCON 9 launch vehicle from the Air Force Eastern Test Range (AFETR). Payload-class satellites include a variety of spacecraft equipped with specific instruments for various scientific and technological missions. These include communications satellites like Starlink; space stations such as the ISS; scientific satellites like the Hubble; Earth observation satellites from companies like Planet Labs, Umbra, and HawkEye 360; GPS; miniature CubeSats for education and research; and military/defense satellites.

Loading next visibility...
Identifier
60993, 2024-158D
Orbit
LEO
Country
Flag of USUS
Related business
Manufacturer
SpaceX/Seattle
Mission
Operational Commercial Communications
Bus & Motor
STARLINK V2MD, Unknown motor
Mass
960 kg wet, ~910 kg dry
Launch date (UTC)
2024-09-05 (1 year ago)
Launch vehicle
FALCON 9
Launch site
Air Force Eastern Test Range (AFETR)
Object type
Payload
Rocket body
Debris
Shape & HBR
Box + 2 Pan, 18.1 m
Radar Cross Section
36.964 m², Large (>1 m²)

Expand to show TLE details & history
Last TLE update: 9 hours ago

TLE from 9 hours ago
0 STARLINK-11283
1 60993U 24158D   25294.85135875  .00003357  00000-0  32582-4 0  9993
2 60993  53.1590 246.0437 0001104  77.8875 282.2267 15.69691230 65783
Epoch: 2025-10-21T20:25Z
TLE epoch observation values (Epoch: 2025-10-21T20:25:57.396Z)
Latitude
-0.00001°
Longitude
-90.97884°
Altitude
360.538 km
Speed
7.694 km/s
True Right ascension
16h 24m 10s
True Declination
0° 00' 00"
Sunlit
Object was in daylight at epoch
Visualization orbit readout
Latitude
Unknown
Longitude
Unknown
Altitude
Unknown
Speed
Unknown
Apparent Right ascension
Unknown
Apparent Declination
Unknown
Sunlit
N/A
Visualization observer readout
Local Sidereal Time
00:07:33
Azimuth
Unknown
Elevation
Unknown
Doppler factor
Unknown
Orbital elements
Apogee altitude
360.785 km
Perigee altitude
359.297 km
Semi-major axis
6,738.178 km
Eccentricity
0.00011
Inclination
53.159°
RAAN
246.0437°
Arg. of periapsis
77.8875°
True anomaly
282.21434°
Mean anomaly
282.2267°
Eccentric anomaly
282.22052°
Mean motion
3.924 °/min
Orbital period
91.74 mins
BSTAR
0.000032582
Loading maneuver chart data...
Computing Atmospheric mass density...
Loading historical data...
Loading historical data...
Loading historical data...
Loading historical data...
Loading historical data...
Loading historical data...
Loading historical data...

Documentation

Showing up to 5 results
|